[[{"header":{"parameterUnit":"m.s-1","parameterCategory":1,"la1":30.2991,"la2":30.254,"lo1":-89.0895,"lo2":-89.0444,"dy":0.0017,"dx":0.0017,"nx":28,"ny":28,"refTime":"2024-07-27T09:00:00:Z","depth":0,"parameterNumber":2,"parameterNumberName":"U-component_of_WINDS"},"data":[0,0,0,0,0,0,0,0,0,0,0,0,0,0,0,0,0,0,0,0,0,0,0,0,0,0,0,0,0,0,0,0,0,0,0,0,0,0,0,0,0,0,0,0,0,0,0,0,0,0,0,0,0,0,0,0,0,0,1.1147,1.1148,0,1.1202,1.1203,1.1203,1.1192,1.1191,1.119,1.1189,1.1253,1.1255,1.1258,0,0,0,0,0,0,0,0,0,0,0,0,0,1.1039,1.1041,1.1147,1.1148,1.1149,1.1202,1.1203,1.1203,1.1192,1.1191,1.1189,1.1188,1.1252,1.1255,1.1258,0,0,0,0,0,0,0,0,0,0,0,0,0,1.1089,1.1041,1.1147,1.1149,1.115,1.1202,1.1203,1.1204,1.1192,1.1191,1.1189,1.1188,1.1251,1.1255,1.1259,1.1314,0,0,1.1271,1.1272,0,0,0,0,0,0,0,0,1.1086,1.1093,1.1148,1.1149,1.115,1.1188,1.1188,1.1241,1.1193,1.1176,1.1189,1.1187,1.1233,1.1238,1.1252,1.1317,1.132,1.1271,1.1274,1.1275,1.1276,0,0,0,0,0,0,0,1.1083,1.1091,1.1169,1.1149,1.115,1.1149,1.1155,1.1198,1.1213,1.1178,1.1177,1.1183,1.1233,1.1248,1.1254,1.1321,1.1271,1.1275,1.1277,1.1279,1.1434,1.1436,0,0,0,0,0,0,1.1078,1.1088,1.1167,1.1171,1.1113,1.1152,1.1159,1.1178,1.1212,1.1216,1.1184,1.1182,1.1242,1.1249,1.1256,1.1323,1.1275,1.1279,1.1281,1.1432,1.1434,1.1436,0,0,0,0,0,0,1.1075,1.1085,1.1165,1.1129,1.1139,1.1156,1.1178,1.118,1.1195,1.1217,1.1221,1.1197,1.1241,1.125,1.1299,1.1325,1.1281,1.1284,1.143,1.1433,1.1435,1.1458,0,0,0,0,0,0,1.1072,1.1084,1.1104,1.113,1.1141,1.1206,1.1179,1.1182,1.1201,1.1199,1.123,1.1234,1.1241,1.1293,1.1303,1.133,1.1288,1.1428,1.1431,1.1434,1.1455,1.1461,1.1466,0,0,0,0,0,1.1068,1.111,1.1105,1.1115,1.1166,1.1207,1.1214,1.1219,1.1203,1.1224,1.1238,1.1233,1.132,1.1298,1.1309,1.1338,1.1426,1.143,1.1434,1.1452,1.146,1.1466,0,0,0,0,0,0,1.109,1.1114,1.1108,1.1159,1.1181,1.1205,1.1232,1.1227,1.1256,1.1253,1.1261,1.1268,1.1317,1.1333,1.1308,1.1393,1.1371,1.1378,1.1381,1.1389,1.1394,1.139,1.1291,0,0,0,0,0,1.11,1.1129,1.1149,1.1192,1.1203,1.1215,1.1234,1.1235,1.1259,1.1269,1.1287,1.1313,1.1346,1.1368,1.14,1.1457,1.1464,1.1482,1.1487,1.1492,1.1497,1.1528,1.1537,1.1449,1.1449,1.1449,0,0,1.1123,1.1139,1.1158,1.1197,1.1214,1.1246,1.1224,1.1259,1.1283,1.1276,1.1322,1.1336,1.1365,1.1418,1.1442,1.1432,1.1523,1.1497,1.15,1.1503,1.1533,1.1541,1.1549,1.1452,1.1451,1.1451,0,0,1.118,1.1195,1.1231,1.1248,1.1273,1.1281,1.129,1.1314,1.1323,1.1368,1.1363,1.1394,1.1451,1.1471,1.1489,1.1552,1.1548,1.1562,1.1592,1.1622,1.1629,1.1635,1.1658,1.1666,1.1568,1.1568,1.1568,0,1.1205,1.125,1.1252,1.1286,1.1304,1.1296,1.1334,1.1351,1.1387,1.14,1.1387,1.1458,1.1477,1.1534,1.1549,1.1564,1.1575,1.1559,1.1627,1.1634,1.164,1.1661,1.167,1.1569,1.1569,1.1569,1.1569,0,1.128,1.1312,1.1339,1.137,1.1391,1.1427,1.1436,1.1457,1.1457,1.1466,1.1513,1.1536,1.1571,1.1585,1.1587,1.1643,1.1635,1.1625,1.1604,1.1649,1.167,1.1678,1.1572,1.1571,1.1571,1.157,0,0,1.1354,1.1383,1.1393,1.1407,1.1433,1.1459,1.1495,1.1527,1.1545,1.157,1.1601,1.1649,1.1639,1.1659,1.1663,1.1689,1.1737,1.1676,1.1676,1.1687,1.1801,1.1809,1.1819,1.1734,1.1736,1.1737,1.1799,0,1.1413,1.1474,1.1476,1.1533,1.1562,1.1554,1.1586,1.1607,1.1616,1.1644,1.1656,1.169,1.1674,1.1686,1.1711,1.1726,1.1761,1.1722,1.1766,1.1767,1.1759,1.1829,1.1838,1.1895,1.1807,1.1808,1.1809,0,1.1491,1.1514,1.1573,1.1594,1.1606,1.1635,1.1664,1.169,1.1714,1.1719,1.174,1.174,1.1779,1.1755,1.181,1.1783,1.1801,1.1811,1.1814,1.1819,1.1792,1.1837,1.1913,1.1922,1.1822,1.1821,1.182,0,1.1539,1.1585,1.1626,1.1638,1.1663,1.1683,1.1695,1.1717,1.1736,1.1762,1.1775,1.1806,1.1824,1.185,1.1858,1.184,1.1913,1.189,1.192,1.192,1.1937,1.1936,1.2018,1.1947,1.1947,1.1947,1.1947,0,1.1605,1.1641,1.1648,1.1673,1.1714,1.1716,1.1757,1.1768,1.1787,1.1816,1.1812,1.184,1.1849,1.1879,1.1886,1.193,1.1939,1.1945,1.1947,1.1946,1.1945,1.1959,1.1955,1.1949,1.1949,1.1948,1.1948,0,1.1666,1.1671,1.1715,1.1734,1.174,1.1769,1.1787,1.1812,1.182,1.1857,1.1866,1.188,1.1914,1.1925,1.1968,1.1973,1.2025,1.2023,1.2016,1.2016,1.2046,1.2043,1.2141,1.2154,1.2074,1.2075,1.2075,0,1.1708,1.1735,1.1756,1.1774,1.1785,1.1814,1.1832,1.1836,1.1856,1.1883,1.1906,1.1939,1.1966,1.2022,1.2038,1.2071,1.207,1.2102,1.2075,1.2073,1.2071,1.207,1.2073,1.2107,1.2108,1.2109,1.2109,0,1.1782,1.1783,1.1808,1.1834,1.1855,1.1877,1.1897,1.1913,1.1919,1.1942,1.1975,1.1996,1.2038,1.2072,1.2105,1.212,1.2117,1.2117,1.2126,1.2126,1.2121,1.2124,1.203,1.2115,1.2115,1.2114,1.2114,1.2114,1.1835,1.1859,1.1876,1.1905,1.192,1.1939,1.1963,1.1973,1.2,1.2032,1.2033,1.207,1.2093,1.2137,1.2153,1.2184,1.2175,1.2188,1.2191,1.2194,1.2197,1.2115,1.219,1.219,1.2189,1.2189,1.2189,0,1.1909,1.192,1.1945,1.1973,1.1995,1.1986,1.2009,1.2029,1.206,1.208,1.2106,1.2145,1.2177,1.2195,1.2228,1.2249,1.2248,1.2257,1.2257,1.226,1.2203,1.2192,1.2257,1.2257,1.2257,1.2257,1.2257,1.2257,1.195,1.199,1.1992,1.204,1.2051,1.2084,1.2098,1.2116,1.2132,1.2174,1.22,1.221,1.223,1.2263,1.2294,1.2298,1.2311,1.2321,1.2325,1.2271,1.2264,1.2258,1.2247,1.2324,1.2324,1.238,1.2381,1.2381]},{"header":{"parameterUnit":"m.s-1","parameterCategory":1,"la1":30.2991,"la2":30.254,"lo1":-89.0895,"lo2":-89.0444,"dy":0.0017,"dx":0.0017,"nx":28,"ny":28,"refTime":"2024-07-27T09:00:00:Z","depth":0,"parameterNumber":3,"parameterNumberName":"V-component_of_WINDS"},"data":[0,0,0,0,0,0,0,0,0,0,0,0,0,0,0,0,0,0,0,0,0,0,0,0,0,0,0,0,0,0,0,0,0,0,0,0,0,0,0,0,0,0,0,0,0,0,0,0,0,0,0,0,0,0,0,0,0,0,1.4552,1.4553,0,1.4578,1.4578,1.4578,1.4637,1.4638,1.464,1.4641,1.4664,1.4664,1.4663,0,0,0,0,0,0,0,0,0,0,0,0,0,1.4553,1.4553,1.4552,1.4553,1.4553,1.4578,1.4578,1.4578,1.4637,1.4638,1.464,1.4641,1.4665,1.4664,1.4663,0,0,0,0,0,0,0,0,0,0,0,0,0,1.4563,1.4553,1.4552,1.4585,1.4588,1.4578,1.4578,1.4578,1.4637,1.4638,1.464,1.4642,1.4665,1.4664,1.4663,1.4622,0,0,1.4661,1.4661,0,0,0,0,0,0,0,0,1.4562,1.4563,1.458,1.4583,1.4586,1.4606,1.4587,1.4593,1.4636,1.4618,1.4641,1.4643,1.4643,1.4645,1.4645,1.4623,1.4624,1.4661,1.466,1.466,1.466,0,0,0,0,0,0,0,1.4562,1.4562,1.4562,1.458,1.4584,1.4598,1.4602,1.4588,1.462,1.462,1.4624,1.4627,1.4646,1.4646,1.4646,1.4624,1.4661,1.466,1.466,1.466,1.457,1.4568,0,0,0,0,0,0,1.4557,1.4561,1.4561,1.4563,1.4579,1.4597,1.4601,1.4598,1.462,1.4626,1.4625,1.4629,1.4646,1.4647,1.4647,1.46,1.466,1.4659,1.4659,1.4572,1.4569,1.4567,0,0,0,0,0,0,1.4556,1.4556,1.456,1.4563,1.4565,1.4595,1.4591,1.4597,1.4598,1.4624,1.463,1.4619,1.4648,1.4648,1.4628,1.4602,1.4659,1.4658,1.4574,1.4571,1.4568,1.4505,0,0,0,0,0,0,1.4556,1.4556,1.454,1.4563,1.4565,1.4541,1.459,1.4597,1.4597,1.4602,1.4621,1.4625,1.4649,1.4629,1.4627,1.4602,1.4658,1.4576,1.4573,1.4569,1.451,1.45,1.4493,0,0,0,0,0,1.4556,1.4521,1.4539,1.4539,1.4546,1.4539,1.454,1.4569,1.4594,1.4579,1.4596,1.4625,1.4605,1.4626,1.4625,1.4599,1.4578,1.4574,1.4569,1.4513,1.4502,1.4493,0,0,0,0,0,0,1.4493,1.4524,1.4545,1.4516,1.4525,1.4549,1.453,1.4556,1.4557,1.4562,1.4597,1.4601,1.4576,1.4585,1.4608,1.456,1.4596,1.4591,1.4554,1.4544,1.4535,1.4533,1.4657,0,0,0,0,0,1.4476,1.4469,1.4496,1.4468,1.4471,1.45,1.4498,1.452,1.453,1.4533,1.4549,1.4557,1.4553,1.4549,1.4547,1.4512,1.4517,1.4493,1.4485,1.4478,1.4473,1.4455,1.4445,1.4553,1.4553,1.4553,0,0,1.4441,1.4457,1.4449,1.4456,1.4465,1.4456,1.4503,1.4491,1.4484,1.4531,1.4513,1.4525,1.4536,1.4509,1.4497,1.4516,1.4444,1.4472,1.4466,1.4465,1.445,1.4439,1.443,1.455,1.4551,1.4551,0,0,1.4371,1.4382,1.4361,1.4369,1.4383,1.4403,1.4397,1.4418,1.4428,1.4411,1.4446,1.4439,1.4431,1.4438,1.444,1.4374,1.4401,1.4373,1.4327,1.431,1.4301,1.4294,1.427,1.4261,1.4368,1.4368,1.4368,0,1.4324,1.4312,1.4346,1.4332,1.4333,1.4377,1.4355,1.4362,1.4373,1.4373,1.4395,1.4386,1.4397,1.4371,1.4355,1.4356,1.4351,1.437,1.43,1.4293,1.4286,1.4264,1.4255,1.4364,1.4365,1.4365,1.4365,0,1.4255,1.4246,1.4226,1.4238,1.4238,1.4219,1.425,1.4245,1.4267,1.4285,1.4266,1.4281,1.4283,1.4279,1.4299,1.4256,1.4267,1.4294,1.4331,1.4272,1.4251,1.4243,1.4359,1.436,1.4361,1.4362,0,0,1.4144,1.4176,1.4168,1.4174,1.4193,1.4186,1.4171,1.4173,1.4169,1.4176,1.4163,1.4156,1.4181,1.4183,1.4206,1.4191,1.4137,1.4219,1.422,1.4202,1.409,1.4069,1.4058,1.4156,1.4154,1.4153,1.4089,0,1.4078,1.4053,1.4083,1.4051,1.4044,1.4086,1.4073,1.4083,1.4099,1.4094,1.4112,1.4106,1.414,1.4142,1.4129,1.4146,1.4115,1.4152,1.4143,1.4142,1.4137,1.4048,1.4025,1.3964,1.4081,1.4079,1.4078,0,1.3997,1.4001,1.3969,1.3991,1.3989,1.3976,1.3981,1.3977,1.3989,1.4002,1.4006,1.4033,1.4019,1.4056,1.4037,1.4061,1.406,1.4068,1.4066,1.4065,1.4106,1.4043,1.3945,1.3935,1.4066,1.4067,1.4068,0,1.3918,1.3916,1.3897,1.3901,1.3927,1.3916,1.3927,1.3941,1.3941,1.3945,1.3946,1.3948,1.3949,1.395,1.3977,1.4002,1.3954,1.3993,1.3963,1.3962,1.395,1.395,1.3849,1.3951,1.3951,1.3951,1.3951,0,1.384,1.3818,1.3862,1.385,1.3827,1.3863,1.3839,1.3853,1.3866,1.3857,1.3894,1.3885,1.3922,1.3917,1.3938,1.3919,1.3919,1.3928,1.3934,1.3924,1.3923,1.3923,1.3927,1.3949,1.3949,1.395,1.395,0,1.3747,1.3776,1.3758,1.3784,1.3791,1.3772,1.3795,1.3785,1.3804,1.3793,1.3792,1.3822,1.3818,1.3846,1.3846,1.3861,1.383,1.3844,1.3826,1.383,1.3798,1.38,1.3691,1.3679,1.379,1.3789,1.3788,0,1.3695,1.368,1.3705,1.3703,1.3711,1.3706,1.3707,1.3741,1.374,1.3754,1.3742,1.3741,1.3742,1.3733,1.3755,1.3755,1.3768,1.3731,1.3769,1.3759,1.3767,1.3767,1.3765,1.3722,1.3721,1.3719,1.3719,0,1.3599,1.3614,1.3614,1.3619,1.3618,1.3624,1.3631,1.3627,1.3664,1.3661,1.3658,1.3659,1.366,1.3659,1.3664,1.3674,1.3702,1.3707,1.37,1.3689,1.3678,1.3683,1.3803,1.3709,1.371,1.371,1.3711,1.3711,1.3524,1.3512,1.3529,1.3527,1.3537,1.3544,1.3536,1.3555,1.3553,1.3558,1.3578,1.3571,1.3585,1.3595,1.3603,1.3598,1.3616,1.3605,1.3603,1.3599,1.3593,1.3681,1.3599,1.3599,1.3599,1.36,1.36,0,1.3429,1.3442,1.3441,1.3451,1.345,1.3478,1.3489,1.3485,1.3479,1.349,1.3491,1.3487,1.3486,1.3508,1.351,1.3502,1.3514,1.3501,1.3501,1.3503,1.3577,1.3583,1.349,1.349,1.349,1.349,1.349,1.349,1.3379,1.3361,1.3378,1.3366,1.3379,1.3373,1.3377,1.3383,1.3392,1.3387,1.3387,1.3402,1.3417,1.3421,1.3421,1.3427,1.3426,1.3407,1.3418,1.3487,1.3497,1.3507,1.3513,1.3407,1.3407,1.3343,1.3343,1.3342]}]]